Targu Mures, Romania

12:12 PM EEST on May 25, 2017 (GMT +0300)
Vidrasau

Weather History for LRTM - February, 2013

Change the Weather History Date:

Friday, February 1, 2013

  Actual Average Record
Temperature  
Mean Temperature 32 °F -  
Max Temperature 41 °F 37 °F 48 °F (2002)
Min Temperature 24 °F 22 °F -7 °F (2012)
Degree Days  
Heating Degree Days 32    
Moisture  
Dew Point 31 °F    
Average Humidity 86    
Maximum Humidity 100    
Minimum Humidity 70    
Precipitation  
Precipitation 0.00 in - - ()
Sea Level Pressure  
Sea Level Pressure 29.80 in    
Wind  
Wind Speed 5 mph ()    
Max Wind Speed 14 mph    
Max Gust Speed -    
Visibility 5.5 miles    
Events Rain    
Averages and records for this station are not official NWS values.
T = Trace of Precipitation, MM = Missing Value Source: Averaged Metar Reports

Daily Weather History Graph

Daily Weather History Graph

Search for Another Location

Airport or City:

Trip Planner

Search our weather history database for the weather conditions in past years. The results will help you decide how hot, cold, wet, or windy it might be!

Date:

Astronomy

Feb. 01, 2013 Rise Set
Actual Time 7:45 AM EET 5:25 PM EET
Civil Twilight 7:13 AM EET 5:58 PM EET
Nautical Twilight 6:37 AM EET 6:34 PM EET
Astronomical Twilight 6:01 AM EET 7:09 PM EET
Moon 11:37 PM EET (2/1) 9:45 AM EET (2/1)
Length of Visible Light 10h 44m
Length of Day
9h 40m
Waning Gibbous, 73% of the Moon is Illuminated
Feb 1
Waning Gibbous
Feb 3
Last Quarter
Feb 10
New
Feb 17
First Quarter
Feb 25
Full

Hourly Weather History & Observations

Time (EET) Temp. Windchill Dew Point Humidity Pressure Visibility Wind Dir Wind Speed Gust Speed Precip Events Conditions
12:00 AM 28.4 °F - 28.4 °F 100% 29.89 in - Variable 2.3 mph - N/A   Scattered Clouds
1:00 AM 28.4 °F 23.3 °F 28.4 °F 100% 29.89 in - East 4.6 mph - N/A   Mist
2:00 AM 26.6 °F 19.1 °F 26.6 °F 100% 29.86 in - East 6.9 mph - N/A   Mist
3:00 AM 24.8 °F 19.1 °F 24.8 °F 100% 29.83 in 1.7 mi East 4.6 mph - N/A   Mist
4:00 AM 26.6 °F - 26.6 °F 100% 29.83 in 2.2 mi ENE 2.3 mph - N/A   Mist
5:00 AM 30.2 °F - 30.2 °F 100% 29.80 in - Variable 2.3 mph - N/A   Scattered Clouds
5:30 AM 30.2 °F - 30.2 °F 100% 29.77 in 1.9 mi Variable 2.3 mph - N/A Rain Light Freezing Rain
6:00 AM 30.2 °F - 30.2 °F 100% 29.80 in 1.7 mi Variable 2.3 mph - N/A Rain Light Freezing Rain
6:30 AM 35.6 °F 31.7 °F 33.8 °F 93% 29.77 in 3.1 mi WSW 4.6 mph - N/A Rain Light Rain
7:00 AM 37.4 °F 29.8 °F 32.0 °F 81% 29.77 in 6.2 mi SW 11.5 mph - N/A Rain Light Rain
7:30 AM 39.2 °F 31.2 °F 32.0 °F 75% 29.77 in 6.2 mi SW 13.8 mph - N/A   Scattered Clouds
8:00 AM 35.6 °F 29.9 °F 32.0 °F 87% 29.77 in 6.2 mi WSW 6.9 mph - N/A   Scattered Clouds
8:30 AM 35.6 °F 28.6 °F 32.0 °F 87% 29.77 in 6.2 mi West 9.2 mph - N/A   Scattered Clouds
9:00 AM 35.6 °F 29.9 °F 32.0 °F 87% 29.77 in 6.2 mi WSW 6.9 mph - N/A   Partly Cloudy
9:30 AM 37.4 °F 30.8 °F 33.8 °F 87% 29.77 in 6.2 mi SW 9.2 mph - N/A   Partly Cloudy
10:00 AM 39.2 °F 35.9 °F 33.8 °F 81% 29.77 in 6.2 mi WSW 4.6 mph - N/A   Scattered Clouds
10:30 AM 41.0 °F 38.0 °F 33.8 °F 76% 29.77 in 6.2 mi West 4.6 mph - N/A   Partly Cloudy
11:00 AM 41.0 °F 38.0 °F 33.8 °F 76% 29.80 in 6.2 mi WSW 4.6 mph - N/A   Partly Cloudy
11:30 AM 39.2 °F 34.2 °F 33.8 °F 81% 29.80 in 6.2 mi SW 6.9 mph - N/A   Scattered Clouds
12:00 PM 41.0 °F 38.0 °F 33.8 °F 76% 29.80 in 6.2 mi West 4.6 mph - N/A   Partly Cloudy
12:30 PM 41.0 °F 36.4 °F 33.8 °F 76% 29.77 in 6.2 mi West 6.9 mph - N/A   Partly Cloudy
1:00 PM 41.0 °F 35.2 °F 32.0 °F 70% 29.80 in 6.2 mi WNW 9.2 mph - N/A   Partly Cloudy
1:30 PM 41.0 °F 34.3 °F 32.0 °F 70% 29.80 in 6.2 mi NW 11.5 mph - N/A   Partly Cloudy
2:00 PM 41.0 °F 33.5 °F 32.0 °F 70% 29.80 in 6.2 mi NW 13.8 mph - N/A   Partly Cloudy
2:30 PM 41.0 °F 33.5 °F 32.0 °F 70% 29.80 in 6.2 mi NNW 13.8 mph - N/A   Partly Cloudy
3:00 PM 39.2 °F 31.2 °F 32.0 °F 75% 29.80 in 6.2 mi NNW 13.8 mph - N/A   Partly Cloudy
3:30 PM 41.0 °F 35.2 °F 32.0 °F 70% 29.80 in 6.2 mi NNW 9.2 mph - N/A   Partly Cloudy
4:00 PM 39.2 °F - 32.0 °F 75% 29.80 in 6.2 mi Variable 2.3 mph - N/A   Partly Cloudy
4:30 PM 39.2 °F - 32.0 °F 75% 29.80 in 6.2 mi Variable 2.3 mph - N/A   Partly Cloudy
5:00 PM 41.0 °F - 32.0 °F 70% 29.83 in 6.2 mi Variable 2.3 mph - N/A   Partly Cloudy
5:30 PM 35.6 °F - 32.0 °F 87% 29.80 in 6.2 mi South 2.3 mph - N/A   Partly Cloudy
6:00 PM 35.6 °F 31.7 °F 32.0 °F 87% 29.80 in 6.2 mi West 4.6 mph - N/A   Partly Cloudy
6:30 PM 35.6 °F - 32.0 °F 87% 29.80 in 6.2 mi Variable 2.3 mph - N/A   Partly Cloudy
7:00 PM 35.6 °F 31.7 °F 32.0 °F 87% 29.80 in 6.2 mi NE 4.6 mph - N/A   Partly Cloudy
7:30 PM 33.8 °F - 32.0 °F 93% 29.80 in 6.2 mi Calm Calm - N/A   Scattered Clouds
8:00 PM 33.8 °F - 32.0 °F 93% 29.80 in 6.2 mi Calm Calm - N/A   Mostly Cloudy
8:30 PM 32.0 °F - 30.2 °F 93% 29.80 in 5.0 mi Calm Calm - N/A   Mostly Cloudy
9:00 PM 33.8 °F 29.6 °F 32.0 °F 93% 29.80 in 5.0 mi NE 4.6 mph - N/A   Unknown
10:00 PM 32.0 °F - 30.2 °F 93% 29.77 in 4.3 mi East 2.3 mph - N/A   Unknown
11:00 PM 28.4 °F 23.3 °F 28.4 °F 100% 29.74 in 4.3 mi East 4.6 mph - N/A   Unknown